Regional Weather Roundup
Issued by NWS

Home | Current Version | Previous Version | Graphics & Text | Print | Product List | Glossary On
Versions: 1 2 3 4 5 6 7 8 9 10 11 12 13 14 15 16 17 18 19 20 21 22 23 24
000
ASUS45 KCYS 220010
RWRWY

WYOMING REGIONAL WEATHER ROUNDUP
NATIONAL WEATHER SERVICE CHEYENNE WY
600 PM MDT TUE MAR 21 2017

NOTE:  "FAIR" INDICATES FEW OR NO CLOUDS BELOW 12,000 FEET
WITH NO SIGNIFICANT WEATHER AND/OR OBSTRUCTIONS TO VISIBILITY.

WYZ001-220100-
YELLOWSTONE NATIONAL PARK

CITY           SKY/WX    TMP DP  RH WIND       PRES   REMARKS
LK YELLOWSTONE   N/A     47  28  47 CALM      30.02S
6HR MIN TEMP:  41; 6HR MAX TEMP:  49;

W YELLOWSTONE  NOT AVBL

$$
WYZ002>013-054>058-071-098>099-220100-
NORTHERN WYOMING

CITY           SKY/WX    TMP DP  RH WIND       PRES   REMARKS
JACKSON        MOSUNNY   52  34  50 SW3       29.96F
CODY           FAIR      46  38  73 SE3       29.98F
GREYBULL       PTSUNNY   51  39  63 NW5       29.95F
6HR MIN TEMP:  40; 6HR MAX TEMP:  53;

WORLAND        FAIR      51  42  71 N3        29.95F
6HR MIN TEMP:  41; 6HR MAX TEMP:  52;

SHERIDAN       CLOUDY    44  40  85 N7        30.00F
6HR MIN TEMP:  40; 6HR MAX TEMP:  45;

BUFFALO        CLOUDY    46  37  71 SE20      30.02F
6HR MIN TEMP:  38; 6HR MAX TEMP:  51; 6HR PCP: TRACE;

GILLETTE       FAIR      41  34  76 S20       30.06F
6HR MIN TEMP:  39; 6HR MAX TEMP:  46;

HULETT         FAIR      34  32  93 NE6       30.12F WCI  29
NEWCASTLE      FAIR      45  30  57 SE16G23   30.12S

$$
WYZ014>020-022>026-101>103-220100-
CENTRAL WYOMING

CITY           SKY/WX    TMP DP  RH WIND       PRES   REMARKS
BIG PINEY      CLOUDY    47  38  71 N8        30.02F
6HR MIN TEMP:  44; 6HR MAX TEMP:  52;

PINEDALE       CLOUDY    48  34  57 SE5       30.04F
DUBOIS         CLOUDY    50  36  57 E3        30.00F
LANDER         FAIR      53  38  56 CALM      29.95F
6HR MIN TEMP:  46; 6HR MAX TEMP:  56;

RIVERTON       FAIR      53  37  54 NE6       29.97F
6HR MIN TEMP:  44; 6HR MAX TEMP:  55;

CASPER         PTSUNNY   52  40  63 NE12      29.96F
6HR MIN TEMP:  42; 6HR MAX TEMP:  54;

DOUGLAS        LGT RAIN  52  39  61 S9        30.07R
6HR MIN TEMP:  46; 6HR MAX TEMP:  56; 6HR PCP:  0.01;


$$
WYZ021-027>030-104>119-220100-
SOUTHERN WYOMING

CITY           SKY/WX    TMP DP  RH WIND       PRES   REMARKS
EVANSTON       FAIR      55  27  34 SW17      29.99F
6HR MIN TEMP:  54; 6HR MAX TEMP:  60;

KEMMERER         N/A     50  30  46 SW12      30.02S
FORT BRIDGER   MOCLDY    60  27  28 SW16      30.04S
ROCK SPRINGS   CLOUDY    58  32  37 W10G20    30.03R
6HR MIN TEMP:  55; 6HR MAX TEMP:  65; 6HR PCP: TRACE;

DIXON            N/A     63  22  20 SW13G24   30.05S
RAWLINS        CLOUDY    61  24  24 SW18G26   30.01F
6HR MIN TEMP:  56; 6HR MAX TEMP:  66; 6HR PCP: TRACE;

SARATOGA       FAIR      61  21  21 SW14G25   30.05S
LARAMIE        PTSUNNY   48  34  58 SE20      30.11R
6HR MIN TEMP:  48; 6HR MAX TEMP:  60; 6HR PCP: TRACE;

CHEYENNE       PTSUNNY   54  33  45 SE14      30.10F
6HR MIN TEMP:  47; 6HR MAX TEMP:  54; 6HR PCP: TRACE;

TORRINGTON     CLOUDY    56  33  42 SE18G26   30.07F
6HR MIN TEMP:  54; 6HR MAX TEMP:  59; 6HR PCP: TRACE;

PINE BLUFFS    FAIR      54  34  47 SE21G31   30.10S

$$




USA.gov is the U.S. government's official web portal to all federal, state and local government web resources and services.